Ellensburg, WA

7:57 AM PST on February 20, 2018 (GMT -0800)
Bowers

Weather History for KELN - October, 2011

Change the Weather History Date:

Tuesday, October 4, 2011

  Actual Average (KYKM) Record (KYKM)
Temperature  
Mean Temperature 52 °F -  
Max Temperature 61 °F 71 °F 85 °F (1958)
Min Temperature 48 °F 37 °F 27 °F (1989)
Degree Days  
Heating Degree Days 12    
Growing Degree Days 2 (Base 50)    
Moisture  
Dew Point 46 °F    
Average Humidity 80    
Maximum Humidity 94    
Minimum Humidity 49    
Precipitation  
Precipitation 0.06 in - - ()
Sea Level Pressure  
Sea Level Pressure 29.69 in    
Wind  
Wind Speed 2 mph (SE)    
Max Wind Speed 7 mph    
Max Gust Speed -    
Visibility 6 miles    
Events Fog , Rain    
Averages and records for this station are not official NWS values.
T = Trace of Precipitation, MM = Missing Value Source: NWS Daily Summary

Daily Weather History Graph

Daily Weather History Graph

Search for Another Location

Airport or City:

Trip Planner

Search our weather history database for the weather conditions in past years. The results will help you decide how hot, cold, wet, or windy it might be!

Date:

Astronomy

Oct. 04, 2011 Rise Set
Actual Time 7:04 AM PDT 6:36 PM PDT
Civil Twilight 6:34 AM PDT 7:06 PM PDT
Nautical Twilight 5:59 AM PDT 7:41 PM PDT
Astronomical Twilight 5:23 AM PDT 8:17 PM PDT
Moon 3:05 PM PDT (10/4) No Moon Set
Length of Visible Light 12h 32m
Length of Day
11h 31m
First Quarter, 57% of the Moon is Illuminated
Oct 4
First Quarter
Oct 11
Full
Oct 19
Last Quarter
Oct 26
New
Nov 2
First Quarter

Hourly Weather History & Observations

Time (PDT) Temp. Dew Point Humidity Pressure Visibility Wind Dir Wind Speed Gust Speed Precip Events Conditions
12:53 AM 52.0 °F 48.0 °F 86% 29.78 in 7.0 mi Calm Calm - 0.03 in Rain Light Rain
1:35 AM 51.8 °F 48.2 °F 88% 29.77 in 7.0 mi Calm Calm - 0.02 in Rain Light Rain
1:53 AM 52.0 °F 48.0 °F 86% 29.77 in 8.0 mi Calm Calm - 0.02 in Rain Light Rain
2:10 AM 51.8 °F 48.2 °F 88% 29.77 in 8.0 mi Calm Calm - 0.01 in Rain Light Rain
2:53 AM 52.0 °F 48.0 °F 86% 29.75 in 8.0 mi Calm Calm - 0.01 in Rain Light Rain
4:00 AM 51.8 °F 48.2 °F 88% 29.74 in 2.5 mi WSW 4.6 mph - N/A   Overcast
4:05 AM 51.8 °F 48.2 °F 88% 29.74 in 1.0 mi WSW 4.6 mph - N/A   Overcast
4:09 AM 51.8 °F 48.2 °F 88% 29.74 in 0.8 mi WSW 4.6 mph - N/A   Overcast
4:30 AM 50.0 °F 48.2 °F 94% 29.73 in 3.0 mi Calm Calm - N/A   Mostly Cloudy
4:53 AM 51.1 °F 46.9 °F 86% 29.73 in 10.0 mi Calm Calm - N/A   Overcast
5:49 AM 48.2 °F 46.4 °F 93% 29.73 in 1.8 mi East 3.5 mph - N/A   Overcast
5:53 AM 50.0 °F 46.0 °F 86% 29.72 in 1.8 mi East 3.5 mph - N/A   Overcast
5:56 AM 48.2 °F 46.4 °F 93% 29.73 in 3.0 mi East 3.5 mph - N/A   Overcast
6:33 AM 48.2 °F 46.4 °F 93% 29.73 in 1.8 mi East 3.5 mph - N/A   Overcast
6:50 AM 48.2 °F 46.4 °F 93% 29.73 in 1.5 mi Calm Calm - N/A   Overcast
6:58 AM 48.2 °F 46.4 °F 93% 29.73 in 0.8 mi Calm Calm - N/A   Overcast
7:16 AM 48.2 °F 46.4 °F 93% 29.73 in 0.2 mi ESE 3.5 mph - N/A Fog Fog
7:53 AM 48.9 °F 46.9 °F 93% 29.74 in 0.2 mi Calm Calm - N/A Fog Fog
8:08 AM 48.2 °F 46.4 °F 93% 29.73 in 0.2 mi West 3.5 mph - N/A Fog Fog
8:26 AM 50.0 °F 46.4 °F 87% 29.73 in 0.2 mi Calm Calm - N/A Fog Fog
8:53 AM 51.1 °F 48.0 °F 89% 29.73 in 1.0 mi Calm Calm - N/A   Overcast
8:57 AM 50.0 °F 46.4 °F 87% 29.73 in 2.0 mi Calm Calm - N/A   Overcast
9:05 AM 50.0 °F 46.4 °F 87% 29.73 in 3.0 mi Calm Calm - N/A   Overcast
9:53 AM 53.1 °F 48.9 °F 86% 29.71 in 10.0 mi Calm Calm - N/A   Mostly Cloudy
10:06 AM 53.6 °F 48.2 °F 82% 29.71 in 10.0 mi SSE 5.8 mph - N/A   Mostly Cloudy
10:31 AM 53.6 °F 48.2 °F 82% 29.71 in 10.0 mi SSE 4.6 mph - N/A   Scattered Clouds
10:53 AM 53.1 °F 46.9 °F 80% 29.70 in 10.0 mi SE 5.8 mph - N/A   Clear
11:53 AM 54.0 °F 46.0 °F 75% 29.69 in 10.0 mi ESE 4.6 mph - N/A   Partly Cloudy
12:53 PM 57.0 °F 44.1 °F 62% 29.66 in 10.0 mi SSE 5.8 mph - N/A   Clear
1:53 PM 57.9 °F 42.1 °F 56% 29.64 in 10.0 mi South 5.8 mph - N/A   Partly Cloudy
3:53 PM 57.9 °F 41.0 °F 53% 29.61 in 10.0 mi East 5.8 mph - N/A   Mostly Cloudy
4:53 PM 57.0 °F 37.9 °F 49% 29.60 in 10.0 mi ESE 4.6 mph - N/A   Clear
5:53 PM 55.9 °F 39.9 °F 55% 29.58 in 10.0 mi ENE 4.6 mph - N/A   Clear
6:53 PM 54.0 °F 39.0 °F 57% 29.58 in 10.0 mi East 5.8 mph - N/A   Mostly Cloudy
7:53 PM 54.0 °F 42.1 °F 64% 29.55 in 10.0 mi East 6.9 mph - N/A   Mostly Cloudy
8:53 PM 53.1 °F 44.1 °F 71% 29.55 in 10.0 mi SE 6.9 mph - N/A   Scattered Clouds
9:53 PM 53.1 °F 43.0 °F 69% 29.53 in 10.0 mi SSE 4.6 mph - N/A   Mostly Cloudy
10:53 PM 54.0 °F 44.1 °F 69% 29.51 in 10.0 mi SE 3.5 mph - N/A   Overcast
11:53 PM 54.0 °F 44.1 °F 69% 29.49 in 10.0 mi Calm Calm - N/A   Overcast